TimePDT,TemperatureF,Dew PointF,Humidity,Sea Level PressureIn,VisibilityMPH,Wind Direction,Wind SpeedMPH,Gust SpeedMPH,PrecipitationIn,Events,Conditions,WindDirDegrees,DateUTC
12:53 AM,43.0,30.0,60,29.97,10.0,Calm,Calm,-,N/A,,Clear,0,2013-05-16 07:53:00
1:53 AM,46.0,28.0,50,29.95,10.0,SSW,6.9,-,N/A,,Clear,210,2013-05-16 08:53:00
2:53 AM,42.1,28.9,60,29.94,10.0,South,4.6,-,N/A,,Clear,190,2013-05-16 09:53:00
3:53 AM,42.1,28.9,60,29.94,10.0,SSW,5.8,-,N/A,,Clear,200,2013-05-16 10:53:00
4:53 AM,42.1,28.9,60,29.93,10.0,South,4.6,-,N/A,,Mostly Cloudy,190,2013-05-16 11:53:00
5:53 AM,45.0,30.9,58,29.92,10.0,SSW,5.8,-,N/A,,Overcast,200,2013-05-16 12:53:00
6:53 AM,46.9,36.0,66,29.93,10.0,SSW,10.4,-,0.00,Rain,Light Rain,200,2013-05-16 13:53:00
7:53 AM,48.0,37.0,66,29.94,10.0,South,15.0,-,0.00,Rain,Light Rain,190,2013-05-16 14:53:00
8:53 AM,46.0,37.9,73,29.95,7.0,South,13.8,21.9,0.00,Rain,Light Rain,190,2013-05-16 15:53:00
9:53 AM,46.9,37.9,71,29.94,10.0,SSW,12.7,-,0.01,Rain,Light Rain,200,2013-05-16 16:53:00
10:53 AM,51.1,37.0,59,29.93,10.0,SSW,13.8,20.7,0.00,Rain,Light Rain,210,2013-05-16 17:53:00
11:53 AM,48.9,39.9,71,29.94,9.0,SW,12.7,-,0.00,Rain,Light Rain,220,2013-05-16 18:53:00
12:53 PM,48.0,39.0,71,29.96,8.0,SSW,13.8,20.7,0.02,Rain,Light Rain,200,2013-05-16 19:53:00
1:53 PM,48.0,39.9,74,29.95,10.0,SSW,10.4,21.9,0.02,Rain,Light Rain,200,2013-05-16 20:53:00
3:53 PM,50.0,37.9,63,29.94,10.0,South,15.0,20.7,0.00,Rain,Light Rain,190,2013-05-16 22:53:00
4:53 PM,48.0,37.9,68,29.94,10.0,SSW,12.7,-,0.00,Rain,Light Rain,200,2013-05-16 23:53:00
5:39 PM,46.4,37.4,71,30.02,10.0,South,6.9,-,0.00,,Overcast,190,2013-05-17 00:39:00
5:53 PM,46.9,37.0,68,29.93,10.0,South,9.2,-,0.00,,Overcast,190,2013-05-17 00:53:00
6:08 PM,46.4,37.4,71,30.01,10.0,SSW,9.2,-,0.00,Rain,Light Rain,200,2013-05-17 01:08:00
6:53 PM,46.0,39.0,76,29.92,9.0,SSW,10.4,-,0.00,Rain,Light Rain,200,2013-05-17 01:53:00
7:53 PM,44.1,37.9,79,29.92,7.0,South,9.2,-,0.01,Rain,Light Rain,190,2013-05-17 02:53:00
8:53 PM,44.1,37.9,79,29.94,10.0,SSW,6.9,-,0.01,,Overcast,210,2013-05-17 03:53:00
9:53 PM,43.0,37.9,82,29.94,10.0,Calm,Calm,-,N/A,,Mostly Cloudy,0,2013-05-17 04:53:00
10:05 PM,42.8,37.4,81,30.02,10.0,Calm,Calm,-,N/A,,Mostly Cloudy,0,2013-05-17 05:05:00
10:53 PM,41.0,36.0,82,29.93,10.0,SW,3.5,-,N/A,,Mostly Cloudy,220,2013-05-17 05:53:00
11:53 PM,43.0,35.1,74,29.92,10.0,SSW,4.6,-,N/A,,Overcast,210,2013-05-17 06:53:00